| time (UTC) | temp F | wind direction | speed MPH | gust MPH | rain 1hr in | rain 24hr in | rain mn in | humidity % | barometer mb |
| 20260505010505 | 64 | 229 | 3.0 | 9.0 | 0.00 | 0.00 | 0.00 | 65 | 1011.7 |
| 20260505005505 | 64 | 221 | 4.0 | 8.0 | 0.00 | 0.00 | 0.00 | 64 | 1011.7 |
| 20260505005013 | 64 | 210 | 3.0 | 8.0 | 0.00 | 0.00 | 0.00 | 64 | 1011.7 |
| 20260505004505 | 64 | 278 | 3.0 | 8.0 | 0.00 | 0.00 | 0.00 | 64 | 1011.6 |
| 20260505004008 | 65 | 206 | 3.0 | 9.0 | 0.00 | 0.00 | 0.00 | 62 | 1011.6 |
| 20260505003010 | 65 | 179 | 3.0 | 8.0 | 0.00 | 0.00 | 0.00 | 62 | 1011.6 |
| 20260505002504 | 65 | 256 | 3.0 | 8.0 | 0.00 | 0.00 | 0.00 | 62 | 1011.6 |
| 20260505002010 | 66 | 223 | 3.0 | 10.0 | 0.00 | 0.00 | 0.00 | 61 | 1011.6 |
| 20260505001504 | 66 | 232 | 3.0 | 9.0 | 0.00 | 0.00 | 0.00 | 61 | 1011.7 |
| 20260505001011 | 66 | 262 | 3.0 | 11.0 | 0.00 | 0.00 | 0.00 | 61 | 1011.6 |
| 20260505000505 | 66 | 232 | 3.0 | 11.0 | 0.00 | 0.00 | 0.00 | 62 | 1011.5 |
| 20260505000012 | 66 | 254 | 3.0 | 8.0 | 0.00 | 0.00 | 0.00 | 62 | 1011.5 |
| 20260504235504 | 67 | 234 | 3.0 | 9.0 | 0.00 | 0.00 | 0.00 | 61 | 1011.3 |
| 20260504235006 | 67 | 200 | 3.0 | 9.0 | 0.00 | 0.00 | 0.00 | 60 | 1011.3 |
| 20260504234505 | 68 | 194 | 3.0 | 10.0 | 0.00 | 0.00 | 0.00 | 60 | 1011.2 |
| 20260504234012 | 68 | 226 | 3.0 | 10.0 | 0.00 | 0.00 | 0.00 | 59 | 1011.1 |
| 20260504233005 | 68 | 221 | 4.0 | 12.0 | 0.00 | 0.00 | 0.00 | 58 | 1011.1 |
| 20260504232504 | 68 | 268 | 4.0 | 12.0 | 0.00 | 0.00 | 0.00 | 58 | 1011.1 |
| 20260504232004 | 69 | 192 | 4.0 | 9.0 | 0.00 | 0.00 | 0.00 | 58 | 1011.1 |
| 20260504231005 | 69 | 237 | 4.0 | 10.0 | 0.00 | 0.00 | 0.00 | 57 | 1011.0 |
| 20260504230503 | 69 | 235 | 4.0 | 13.0 | 0.00 | 0.00 | 0.00 | 57 | 1011.0 |
| 20260504230005 | 69 | 122 | 5.0 | 13.0 | 0.00 | 0.00 | 0.00 | 56 | 1011.0 |
| 20260504225503 | 70 | 200 | 4.0 | 10.0 | 0.00 | 0.00 | 0.00 | 54 | 1011.0 |
| 20260504225004 | 71 | 156 | 4.0 | 11.0 | 0.00 | 0.00 | 0.00 | 51 | 1011.0 |
| 20260504224503 | 71 | 202 | 3.0 | 11.0 | 0.00 | 0.00 | 0.00 | 48 | 1011.0 |
| 20260504224005 | 73 | 211 | 3.0 | 10.0 | 0.00 | 0.00 | 0.00 | 39 | 1010.9 |
| 20260504223504 | 73 | 255 | 3.0 | 9.0 | 0.00 | 0.00 | 0.00 | 38 | 1010.9 |
| 20260504223003 | 73 | 209 | 3.0 | 9.0 | 0.00 | 0.00 | 0.00 | 38 | 1010.9 |
| 20260504221502 | 73 | 180 | 3.0 | 8.0 | 0.00 | 0.00 | 0.00 | 37 | 1011.0 |
| 20260504220503 | 73 | 297 | 4.0 | 11.0 | 0.00 | 0.00 | 0.00 | 37 | 1011.1 |
| 20260504220006 | 74 | 35 | 4.0 | 10.0 | 0.00 | 0.00 | 0.00 | 36 | 1011.0 |
| 20260504215503 | 74 | 202 | 4.0 | 10.0 | 0.00 | 0.00 | 0.00 | 36 | 1011.0 |
| 20260504215004 | 74 | 170 | 4.0 | 10.0 | 0.00 | 0.00 | 0.00 | 36 | 1011.0 |
| 20260504214504 | 74 | 238 | 3.0 | 10.0 | 0.00 | 0.00 | 0.00 | 36 | 1011.0 |
| 20260504214004 | 74 | 232 | 3.0 | 9.0 | 0.00 | 0.00 | 0.00 | 37 | 1011.0 |
| 20260504213504 | 74 | 248 | 4.0 | 10.0 | 0.00 | 0.00 | 0.00 | 37 | 1011.1 |
| 20260504212504 | 75 | 186 | 4.0 | 10.0 | 0.00 | 0.00 | 0.00 | 35 | 1011.1 |
| 20260504212005 | 75 | 214 | 4.0 | 12.0 | 0.00 | 0.00 | 0.00 | 35 | 1011.0 |
| 20260504211505 | 75 | 335 | 4.0 | 13.0 | 0.00 | 0.00 | 0.00 | 34 | 1011.1 |
| 20260504210504 | 75 | 209 | 4.0 | 14.0 | 0.00 | 0.00 | 0.00 | 35 | 1011.1 |
| 20260504210009 | 76 | 252 | 4.0 | 11.0 | 0.00 | 0.00 | 0.00 | 36 | 1011.1 |
| 20260504205504 | 75 | 199 | 4.0 | 10.0 | 0.00 | 0.00 | 0.00 | 34 | 1011.1 |
| 20260504205004 | 76 | 242 | 4.0 | 8.0 | 0.00 | 0.00 | 0.00 | 36 | 1011.1 |
| 20260504204504 | 75 | 269 | 4.0 | 9.0 | 0.00 | 0.00 | 0.00 | 37 | 1011.2 |
| 20260504204005 | 75 | 226 | 4.0 | 9.0 | 0.00 | 0.00 | 0.00 | 34 | 1011.1 |
| 20260504203004 | 75 | 236 | 3.0 | 11.0 | 0.00 | 0.00 | 0.00 | 35 | 1011.2 |
| 20260504202504 | 76 | 205 | 3.0 | 9.0 | 0.00 | 0.00 | 0.00 | 34 | 1011.3 |
| 20260504201505 | 76 | 212 | 4.0 | 8.0 | 0.00 | 0.00 | 0.00 | 36 | 1011.4 |
| 20260504201005 | 75 | 255 | 4.0 | 9.0 | 0.00 | 0.00 | 0.00 | 37 | 1011.4 |
| 20260504200505 | 75 | 227 | 3.0 | 12.0 | 0.00 | 0.00 | 0.00 | 35 | 1011.4 |
| 20260504200004 | 76 | 302 | 3.0 | 8.0 | 0.00 | 0.00 | 0.00 | 35 | 1011.4 |
| 20260504195503 | 76 | 246 | 3.0 | 8.0 | 0.00 | 0.00 | 0.00 | 36 | 1011.5 |
| 20260504195004 | 75 | 283 | 3.0 | 9.0 | 0.00 | 0.00 | 0.00 | 40 | 1011.5 |
| 20260504194503 | 76 | 257 | 3.0 | 10.0 | 0.00 | 0.00 | 0.00 | 36 | 1011.6 |
| 20260504193504 | 76 | 287 | 4.0 | 12.0 | 0.00 | 0.00 | 0.00 | 37 | 1011.6 |
| 20260504192502 | 77 | 258 | 3.0 | 9.0 | 0.00 | 0.00 | 0.00 | 37 | 1011.7 |
| 20260504192004 | 75 | 217 | 4.0 | 10.0 | 0.00 | 0.00 | 0.00 | 36 | 1011.8 |
| 20260504191503 | 76 | 287 | 4.0 | 10.0 | 0.00 | 0.00 | 0.00 | 37 | 1011.9 |
| 20260504191004 | 75 | 153 | 3.0 | 8.0 | 0.00 | 0.00 | 0.00 | 37 | 1011.9 |
| 20260504190504 | 76 | 300 | 4.0 | 9.0 | 0.00 | 0.00 | 0.00 | 36 | 1012.0 |
| 20260504190008 | 75 | 259 | 4.0 | 9.0 | 0.00 | 0.00 | 0.00 | 34 | 1012.0 |
| 20260504185503 | 75 | 313 | 4.0 | 10.0 | 0.00 | 0.00 | 0.00 | 34 | 1012.2 |
| 20260504184503 | 75 | 5 | 3.0 | 13.0 | 0.00 | 0.00 | 0.00 | 37 | 1012.2 |
| 20260504183503 | 76 | 233 | 3.0 | 8.0 | 0.00 | 0.00 | 0.00 | 35 | 1012.3 |
| 20260504183005 | 75 | 186 | 3.0 | 11.0 | 0.00 | 0.00 | 0.00 | 34 | 1012.3 |
| 20260504182502 | 76 | 244 | 3.0 | 11.0 | 0.00 | 0.00 | 0.00 | 37 | 1012.4 |
| 20260504182004 | 76 | 335 | 3.0 | 9.0 | 0.00 | 0.00 | 0.00 | 41 | 1012.3 |
| 20260504181503 | 75 | 312 | 4.0 | 13.0 | 0.00 | 0.00 | 0.00 | 35 | 1012.5 |
| 20260504180504 | 75 | 336 | 3.0 | 8.0 | 0.00 | 0.00 | 0.00 | 34 | 1012.7 |
| 20260504175503 | 75 | 329 | 2.0 | 8.0 | 0.00 | 0.00 | 0.00 | 36 | 1012.6 |
| 20260504175005 | 75 | 331 | 3.0 | 11.0 | 0.00 | 0.00 | 0.00 | 37 | 1012.7 |
| 20260504174504 | 75 | 327 | 3.0 | 11.0 | 0.00 | 0.00 | 0.00 | 39 | 1012.8 |
| 20260504174005 | 75 | 281 | 3.0 | 11.0 | 0.00 | 0.00 | 0.00 | 38 | 1012.8 |
| 20260504173503 | 74 | 320 | 3.0 | 8.0 | 0.00 | 0.00 | 0.00 | 37 | 1012.8 |
| 20260504173004 | 74 | 235 | 3.0 | 8.0 | 0.00 | 0.00 | 0.00 | 40 | 1012.9 |
| 20260504172004 | 74 | 261 | 5.0 | 11.0 | 0.00 | 0.00 | 0.00 | 35 | 1013.1 |
| 20260504171504 | 74 | 261 | 3.0 | 11.0 | 0.00 | 0.00 | 0.00 | 39 | 1013.2 |
| 20260504171005 | 74 | 236 | 3.0 | 9.0 | 0.00 | 0.00 | 0.00 | 35 | 1013.1 |
| 20260504170502 | 74 | 292 | 4.0 | 15.0 | 0.00 | 0.00 | 0.00 | 35 | 1013.3 |
| 20260504150503 | 70 | 250 | 3.0 | 11.0 | 0.00 | 0.00 | 0.00 | 54 | 1014.3 |
| 20260504140503 | 66 | 321 | 4.0 | 10.0 | 0.00 | 0.00 | 0.00 | 55 | 1014.8 |
| 20260504130503 | 62 | 196 | 4.0 | 9.0 | 0.00 | 0.00 | 0.00 | 65 | 1015.5 |
| 20260504110502 | 52 | 209 | 2.0 | 9.0 | 0.00 | 0.00 | 0.00 | 78 | 1016.4 |
| 20260504100501 | 51 | 245 | 1.0 | 4.0 | 0.00 | 0.00 | 0.00 | 78 | 1016.1 |
| 20260504082002 | 50 | 187 | 2.0 | 5.0 | 0.00 | 0.00 | 0.00 | 76 | 1016.4 |
| 20260504080501 | 49 | 244 | 1.0 | 5.0 | 0.00 | 0.00 | 0.00 | 76 | 1016.5 |
| 20260504050500 | 47 | 246 | 1.0 | 5.0 | 0.00 | 0.00 | 0.00 | 65 | 1016.4 |
| 20260504050006 | 47 | 250 | 1.0 | 2.0 | 0.00 | 0.00 | 0.00 | 65 | 1016.4 |
| 20260504045005 | 47 | 250 | 1.0 | 4.0 | 0.00 | 0.00 | 0.00 | 66 | 1016.3 |
| 20260504044005 | 47 | 250 | 1.0 | 5.0 | 0.00 | 0.00 | 0.00 | 65 | 1016.3 |
| 20260504043505 | 47 | 250 | 1.0 | 5.0 | 0.00 | 0.00 | 0.00 | 65 | 1016.3 |
| 20260504043007 | 47 | 227 | 1.0 | 4.0 | 0.00 | 0.00 | 0.00 | 65 | 1016.4 |
| 20260504042504 | 47 | 228 | 1.0 | 4.0 | 0.00 | 0.00 | 0.00 | 66 | 1016.2 |
| 20260504041506 | 48 | 228 | 1.0 | 5.0 | 0.00 | 0.00 | 0.00 | 65 | 1016.1 |
| 20260504041006 | 48 | 228 | 1.0 | 5.0 | 0.00 | 0.00 | 0.00 | 64 | 1016.1 |
| 20260504040506 | 48 | 236 | 1.0 | 3.0 | 0.00 | 0.00 | 0.00 | 63 | 1016.0 |
| 20260504035505 | 48 | 236 | 1.0 | 5.0 | 0.00 | 0.00 | 0.00 | 64 | 1015.9 |
| 20260504035005 | 48 | 236 | 1.0 | 5.0 | 0.00 | 0.00 | 0.00 | 65 | 1015.9 |
| 20260504034505 | 48 | 202 | 1.0 | 4.0 | 0.00 | 0.00 | 0.00 | 64 | 1015.9 |
| 20260504034005 | 48 | 207 | 1.0 | 6.0 | 0.00 | 0.00 | 0.00 | 64 | 1015.8 |
| 20260504033506 | 48 | 205 | 1.0 | 6.0 | 0.00 | 0.00 | 0.00 | 63 | 1015.7 |
| 20260504033007 | 48 | 236 | 1.0 | 4.0 | 0.00 | 0.00 | 0.00 | 63 | 1015.7 |
| 20260504032507 | 48 | 236 | 1.0 | 2.0 | 0.00 | 0.00 | 0.00 | 63 | 1015.7 |
| 20260504031505 | 48 | 236 | 1.0 | 3.0 | 0.00 | 0.00 | 0.00 | 64 | 1015.7 |
| 20260504031006 | 48 | 236 | 1.0 | 3.0 | 0.00 | 0.00 | 0.00 | 64 | 1015.7 |
| 20260504030505 | 48 | 236 | 1.0 | 4.0 | 0.00 | 0.00 | 0.00 | 64 | 1015.7 |
| 20260504030006 | 47 | 236 | 1.0 | 4.0 | 0.00 | 0.00 | 0.00 | 65 | 1015.7 |
| 20260504025006 | 47 | 263 | 1.0 | 3.0 | 0.00 | 0.00 | 0.00 | 66 | 1015.7 |
| 20260504024504 | 46 | 265 | 1.0 | 3.0 | 0.00 | 0.00 | 0.00 | 66 | 1015.7 |
| 20260504024004 | 45 | 344 | 0.0 | 2.0 | 0.00 | 0.00 | 0.00 | 68 | 1015.7 |
| 20260504023005 | 45 | 344 | 0.0 | 1.0 | 0.00 | 0.00 | 0.00 | 69 | 1015.7 |
| 20260504022504 | 45 | 344 | 0.0 | 1.0 | 0.00 | 0.00 | 0.00 | 70 | 1015.7 |
| 20260504022006 | 45 | 344 | 0.0 | 2.0 | 0.00 | 0.00 | 0.00 | 69 | 1015.7 |
| 20260504021505 | 45 | 344 | 0.0 | 2.0 | 0.00 | 0.00 | 0.00 | 66 | 1015.7 |
| 20260504020008 | 45 | 344 | 0.0 | 2.0 | 0.00 | 0.00 | 0.00 | 67 | 1015.6 |
| 20260504015504 | 46 | 344 | 0.0 | 1.0 | 0.00 | 0.00 | 0.00 | 68 | 1015.5 |
| 20260504015006 | 46 | 344 | 0.0 | 1.0 | 0.00 | 0.00 | 0.00 | 65 | 1015.5 |
| 20260504014504 | 47 | 344 | 1.0 | 2.0 | 0.00 | 0.00 | 0.00 | 66 | 1015.5 |
| 20260504014005 | 47 | 344 | 0.0 | 2.0 | 0.00 | 0.00 | 0.00 | 64 | 1015.5 |
| 20260504013504 | 47 | 344 | 0.0 | 1.0 | 0.00 | 0.00 | 0.00 | 64 | 1015.4 |
| 20260504013006 | 47 | 344 | 1.0 | 2.0 | 0.00 | 0.00 | 0.00 | 64 | 1015.3 |
| 20260504012005 | 47 | 344 | 0.0 | 2.0 | 0.00 | 0.00 | 0.00 | 64 | 1015.3 |